Weather Service Report


388 
ASUS44 KSJT 212210
RWRSJT
WEST CENTRAL TEXAS REGIONAL WEATHER ROUNDUP
NATIONAL WEATHER SERVICE SAN ANGELO TX
400 PM CST SUN DEC 21 2014

NOTE: "FAIR" INDICATES FEW OR NO CLOUDS BELOW 12,000 FEET WITH NO
SIGNIFICANT WEATHER AND/OR OBSTRUCTIONS TO VISIBILITY.

TXZ049-054-064>066-071>073-076>078-098-099-113-114-127-128-139-140-
154-155-168>170-212300
...LOCATIONS ACROSS WEST CENTRAL TEXAS...
  
CITY           SKY/WX    TMP DP  RH WIND       PRES   REMARKS
SAN ANGELO     SUNNY     63  41  44 SW18G24   29.80F                  
ABILENE        SUNNY     61  42  49 S21       29.76F                  
DYESS AFB      NOT AVBL                                               
JUNCTION       SUNNY     56  45  66 SW14      29.86F                  
SWEETWATER     SUNNY     66  32  27 SW18G26   29.77F                  
BROWNWOOD      CLOUDY    57  45  62 S16       29.82F                  
COLEMAN        CLEAR     59  47  65 S14       29.80F                  
SONORA         SUNNY     55  45  67 S8G16     29.89F                  
OZONA          FAIR      61  43  51 S14       29.87S                  
BRADY          SUNNY     57  45  62 S13       29.82S                  
$$

TEXAS PANHANDLE/OKLAHOMA PANHANDLE
  
CITY           SKY/WX    TMP DP  RH WIND       PRES   REMARKS
AMARILLO       CLOUDY    59  23  25 S12       29.63F                  
BORGER         MOSUNNY   58  24  27 S5        29.62F                  
CANADIAN       SUNNY     56  38  49 S10       29.63F                  
DALHART        CLOUDY    57  24  28 SW12      29.62S                  
DUMAS          CLOUDY    57  23  27 SW12      29.61F                  
GUYMON         NOT AVBL                                               
HEREFORD       CLOUDY    61  27  27 SW15      29.65F                  
PAMPA          CLEAR     58  26  29 S8        29.64S                  
PERRYTON       SUNNY     53  35  49 S14       29.61F                  
$$

SOUTHERN PANHANDLE/SOUTH PLAINS/ROLLING PLAINS
  
CITY           SKY/WX    TMP DP  RH WIND       PRES   REMARKS
LUBBOCK        PTSUNNY   64  25  22 W28G37    29.67F                  
SNYDER         SUNNY     66  31  27 SW20G26   29.74S                  
CHILDRESS      SUNNY     66  30  26 SW9       29.64F                  
SEMINOLE       CLEAR     66  25  21 W22       29.76F                  
$$

PERMIAN BASIN
  
CITY           SKY/WX    TMP DP  RH WIND       PRES   REMARKS
MIDLAND        SUNNY     67  29  24 SW22G28   29.77F                  
ODESSA         SUNNY     68  24  19 W22G29    29.78F                  
WINK           MOSUNNY   69  23  17 W20G31    29.77F                  
$$

FAR WEST/SOUTHWEST MOUNTAINS/TRANS PECOS
  
CITY           SKY/WX    TMP DP  RH WIND       PRES   REMARKS
ALPINE         CLEAR     63  22  20 W20       29.96S                  
DRYDEN           N/A     73  29  19 SW18G24   29.82F                  
EL PASO        PTSUNNY   63  25  23 VRB7      29.93F                  
FORT STOCKTON  SUNNY     71  20  14 W15G24    29.82F                  
GUADALUPE PASS NOT AVBL                                               
MARFA          SUNNY     61  23  23 W18G25    29.95F                  
PECOS          CLEAR     70  24  18 W22G29    29.82R                  
$$

DALLAS/FORT WORTH METROPLEX
  
CITY           SKY/WX    TMP DP  RH WIND       PRES   REMARKS
DFW AIRPORT    CLOUDY    51  45  79 S14       29.84F                  
FTW MEACHAM    CLOUDY    53  46  77 S14       29.84F HAZE             
DAL-EXECUTIVE  CLOUDY    53  44  71 SE10G18   29.86F                  
GRAND PRAIRIE  CLOUDY    52  46  82 S12       29.87F                  
ADDISON        CLOUDY    52  45  76 S12G22    29.87F                  
MESQUITE       CLOUDY    50  45  81 SE12G17   29.89F                  
LANCASTER      CLOUDY    51  43  75 S12G18    29.88F                  
$$

NORTH CENTRAL TEXAS
  
CITY           SKY/WX    TMP DP  RH WIND       PRES   REMARKS
SHRMAN/DENISON CLOUDY    49  47  90 S13       29.86S                  
GAINESVILLE    CLOUDY    48  45  88 S17G24    29.85S FOG              
BRIDGEPORT     CLOUDY    52  48  85 SE10      29.83F                  
DENTON         CLOUDY    50  45  83 S13       29.84F                  
WAXAHACHIE     CLOUDY    51  47  84 S16G24    29.87F                  
GRANBURY       CLOUDY    55  47  77 SE9       29.85S                  
$$

WESTERN NORTH TEXAS
  
CITY           SKY/WX    TMP DP  RH WIND       PRES   REMARKS
WICHITA FALLS  PTSUNNY   55  44  66 S17G26    29.74F                  
VERNON         CLEAR     63  42  47 SE16      29.70F                  
BRECKENRIDGE   CLEAR     60  44  55 S17G23    29.77F HAZE             
COMANCHE       CLOUDY    55  47  76 S14       29.83S                  
$$

CENTRAL AND SOUTH CENTRAL TEXAS
  
CITY           SKY/WX    TMP DP  RH WIND       PRES   REMARKS
AUSTIN/BERGSTM CLOUDY    55  50  83 S10       29.91F                  
WACO           CLOUDY    53  46  77 S14       29.90F                  
HILLSBORO      CLOUDY    53  46  76 S17       29.86F                  
TEMPLE         CLOUDY    54  45  71 S12       29.90S                  
KILLEEN-GRAY   CLOUDY    54  49  82 S12       29.88F                  
FORT HOOD      CLOUDY    55  48  79 S12       29.88F                  
GEORGETOWN     CLOUDY    55  48  76 S9        29.88F                  
LAGO VISTA     CLOUDY    56  49  78 S12G17    29.90F                  
SAN MARCOS     CLOUDY    55  50  82 S12       29.93F                  
NEW BRAUNFELS  CLOUDY    56  52  86 S12       29.92F                  
RANDOLPH AFB   CLOUDY    54  52  94 S7        29.93S                  
SAN ANTONIO    CLOUDY    56  50  80 SW6       29.93F                  
STINSON        CLOUDY    55  51  86 SW6       29.92F                  
PLEASANTON     NOT AVBL                                               
LA GRANGE      CLOUDY    58  53  82 S6        29.92F                  
GIDDINGS       CLOUDY    55  49  82 S3        29.97F                  
$$

EAST TEXAS
  
CITY           SKY/WX    TMP DP  RH WIND       PRES   REMARKS
PARIS          CLOUDY    48  43  81 S14       29.91F                  
CLARKSVILLE    NOT AVBL                                               
TYLER          CLOUDY    52  43  71 S10       29.94S                  
LONGVIEW       CLOUDY    51  44  77 S8        29.95F                  
PALESTINE      CLOUDY    54  46  76 SE7       29.94F                  
NACOGDOCHES    CLOUDY    52  45  76 S7        29.97F                  
$$

TEXAS HILL COUNTRY AND EDWARDS PLATEAU
  
CITY           SKY/WX    TMP DP  RH WIND       PRES   REMARKS
LLANO          PTCLDY    59  48  67 S10       29.88F                  
HORSESHOE BAY  CLOUDY    57  48  70 S8        29.89F                  
KERRVILLE      CLOUDY    51  47  86 S8        29.91F                  
FREDERICKSBRG  CLOUDY    52  46  82 S13G18    29.88F                  
ROCKSPRINGS    CLOUDY    52  46  82 S10       29.90F                  
HONDO          CLOUDY    54  47  77 SW10      29.95F                  
UVALDE         CLOUDY    53  48  83 SE8       29.94S                  
DEL RIO        CLOUDY    55  48  77 SE12      29.89F                  
$$

SOUTHEAST TEXAS
  
CITY           SKY/WX    TMP DP  RH WIND       PRES   REMARKS
COLLEGE STN    CLOUDY    55  48  77 S8        29.94F                  
CALDWELL       CLOUDY    54  50  87 S9        29.96F                  
CROCKETT       CLOUDY    55  48  76 SE7       29.98F                  
BRENHAM        CLOUDY    57  51  79 S5        29.95F                  
HUNTSVILLE     CLOUDY    56  48  74 S7        29.94F                  
CONROE         CLOUDY    58  48  69 SW9       29.97F                  
HOUSTON BUSH   CLOUDY    60  49  66 SE3       29.97F                  
HOUSTON HOBBY  PTSUNNY   61  51  70 SE7       29.96F                  
PERLAND        CLOUDY    62  51  67 E8        29.98F                  
WHARTON        CLOUDY    60  52  75 CALM      29.97F                  
$$

THE UPPER TEXAS COAST
  
CITY           SKY/WX    TMP DP  RH WIND       PRES   REMARKS
ORANGE         CLOUDY    56  50  81 CALM      30.00F                  
PORT ARTHUR    CLOUDY    58  50  75 VRB6      29.97F                  
GALVESTON      CLOUDY    57  54  89 E9        29.97F                  
ANGLETON       CLOUDY    58  53  84 E8        29.97S                  
BAY CITY         N/A     62  55  78 CALM      29.96F                  
$$

TEXAS COASTAL BEND, RIO GRANDE PLAINS DEEP SOUTH TEXAS
  
CITY           SKY/WX    TMP DP  RH WIND       PRES   REMARKS
VICTORIA       CLOUDY    62  54  74 SE6       29.95F                  
BEEVILLE       CLOUDY    60  55  82 SE6       29.94F                  
ROCKPORT       CLOUDY    61  54  77 NE7       29.95F                  
PORT ARANSAS   CLOUDY    60  56  86 NE7       29.94F                  
PORT LAVACA    NOT AVBL                                               
CORPUS CHRISTI CLOUDY    61  54  77 E5        29.95S                  
KINGSVILLE NAS CLOUDY    62  57  83 NE3       29.95F                  
COTULLA        CLOUDY    60  51  72 S6        29.93F                  
LAREDO         SUNNY     66  54  63 W5        29.95F                  
BROWNSVILLE    CLOUDY    67  61  81 N8        29.92F                  
PORT ISABEL    CLOUDY    65  60  84 N9        29.92F HAZE             
HEBBRONVILLE   CLOUDY    62  55  77 SE7       29.94F                  
MCALLEN        CLOUDY    61  56  83 NW5       29.95F                  
WESLACO        CLOUDY    63  56  79 N5        29.94S HAZE             
FALFURRIAS     CLOUDY    60  55  83 N3        29.96S                  
EDINBURG       CLOUDY    64  56  75 N3        29.95S                  
$$

Return to Home page


Western Regional Climate Center, wrcc@dri.edu